Time,TemperatureF,DewpointF,PressureIn,WindDirection,WindDirectionDegrees,WindSpeedMPH,WindSpeedGustMPH,Humidity,HourlyPrecipIn,Conditions,Clouds,dailyrainin,SolarRadiationWatts/m^2,SoftwareType,DateUTC
2013-10-15 00:00:00,78.9,69.5,29.95,NNE,30,0.0,0.0,73,0.00,,,0.00,0,Wunderground v.1.15,2013-10-15 04:00:00,
2013-10-15 00:02:00,78.9,69.5,29.95,NNE,29,0.0,0.0,73,0.00,,,0.00,0,Wunderground v.1.15,2013-10-15 04:02:00,
2013-10-15 00:04:00,78.9,69.5,29.95,NE,44,0.0,0.0,73,0.00,,,0.00,0,Wunderground v.1.15,2013-10-15 04:04:00,
2013-10-15 00:06:00,78.8,69.4,29.95,NE,45,0.0,0.0,73,0.00,,,0.00,0,Wunderground v.1.15,2013-10-15 04:06:00,
2013-10-15 00:08:00,78.8,69.4,29.95,NE,44,0.0,0.0,73,0.00,,,0.00,0,Wunderground v.1.15,2013-10-15 04:08:00,
2013-10-15 00:10:00,78.7,69.3,29.95,NE,56,0.0,0.0,73,0.00,,,0.00,0,Wunderground v.1.15,2013-10-15 04:10:00,
2013-10-15 00:14:00,78.7,68.9,29.95,NE,56,0.0,0.0,72,0.00,,,0.00,0,Wunderground v.1.15,2013-10-15 04:14:00,
2013-10-15 00:20:00,78.7,69.3,29.94,NE,55,0.0,0.0,73,0.00,,,0.00,0,Wunderground v.1.15,2013-10-15 04:20:00,
2013-10-15 00:26:00,78.6,69.2,29.94,NE,55,0.0,0.0,73,0.00,,,0.00,0,Wunderground v.1.15,2013-10-15 04:26:00,
2013-10-15 00:32:00,78.6,69.2,29.94,NE,54,0.0,0.0,73,0.00,,,0.00,0,Wunderground v.1.15,2013-10-15 04:32:00,
2013-10-15 00:38:00,78.6,69.2,29.94,NE,54,0.0,0.0,73,0.00,,,0.00,0,Wunderground v.1.15,2013-10-15 04:38:00,
2013-10-15 00:44:00,78.5,69.1,29.94,NE,54,0.0,0.0,73,0.00,,,0.00,0,Wunderground v.1.15,2013-10-15 04:44:00,
2013-10-15 00:50:00,78.5,69.1,29.94,NE,54,0.0,0.0,73,0.00,,,0.00,0,Wunderground v.1.15,2013-10-15 04:50:00,
2013-10-15 00:56:00,78.5,69.1,29.94,NE,55,0.0,0.0,73,0.00,,,0.00,0,Wunderground v.1.15,2013-10-15 04:56:00,
2013-10-15 01:02:00,78.5,69.5,29.94,ENE,61,0.0,0.0,74,0.00,,,0.00,0,Wunderground v.1.15,2013-10-15 05:02:00,
2013-10-15 01:08:00,78.4,69.4,29.93,ENE,61,0.0,0.0,74,0.00,,,0.00,0,Wunderground v.1.15,2013-10-15 05:08:00,
2013-10-15 01:14:00,78.3,69.3,29.93,East,91,0.0,0.0,74,0.00,,,0.00,0,Wunderground v.1.15,2013-10-15 05:14:00,
2013-10-15 01:20:00,78.3,69.3,29.93,East,86,0.0,0.0,74,0.00,,,0.00,0,Wunderground v.1.15,2013-10-15 05:20:00,
2013-10-15 01:26:00,78.2,69.2,29.93,ENE,74,0.0,0.0,74,0.00,,,0.00,0,Wunderground v.1.15,2013-10-15 05:26:00,
2013-10-15 01:32:00,78.2,69.2,29.93,ENE,74,0.0,0.0,74,0.00,,,0.00,0,Wunderground v.1.15,2013-10-15 05:32:00,
2013-10-15 01:38:00,78.1,69.1,29.93,ENE,72,0.0,0.0,74,0.00,,,0.00,0,Wunderground v.1.15,2013-10-15 05:38:00,
2013-10-15 01:44:00,78.1,69.1,29.93,ENE,67,0.0,0.0,74,0.00,,,0.00,0,Wunderground v.1.15,2013-10-15 05:44:00,
2013-10-15 01:50:00,78.1,69.1,29.93,ENE,70,0.0,0.0,74,0.00,,,0.00,0,Wunderground v.1.15,2013-10-15 05:50:00,
2013-10-15 01:56:00,78.0,69.0,29.93,ENE,69,0.0,0.0,74,0.00,,,0.00,0,Wunderground v.1.15,2013-10-15 05:56:00,
2013-10-15 02:02:00,77.9,68.9,29.93,ENE,70,0.0,0.0,74,0.00,,,0.00,0,Wunderground v.1.15,2013-10-15 06:02:00,
2013-10-15 02:08:00,77.8,68.8,29.93,ENE,65,0.0,0.0,74,0.00,,,0.00,0,Wunderground v.1.15,2013-10-15 06:08:00,
2013-10-15 02:14:00,77.8,68.8,29.93,ENE,63,0.0,0.0,74,0.00,,,0.00,0,Wunderground v.1.15,2013-10-15 06:14:00,
2013-10-15 02:20:00,77.8,68.8,29.92,NE,38,0.0,0.0,74,0.00,,,0.00,0,Wunderground v.1.15,2013-10-15 06:20:00,
2013-10-15 02:26:00,77.8,68.4,29.92,NE,37,0.0,0.0,73,0.00,,,0.00,0,Wunderground v.1.15,2013-10-15 06:26:00,
2013-10-15 02:32:00,77.6,68.7,29.92,North,5,0.0,0.0,74,0.00,,,0.00,0,Wunderground v.1.15,2013-10-15 06:32:00,
2013-10-15 02:38:00,77.0,68.9,29.92,North,5,0.0,0.0,76,0.00,,,0.00,0,Wunderground v.1.15,2013-10-15 06:38:00,
2013-10-15 02:44:00,76.4,68.7,29.92,North,5,0.0,0.0,77,0.00,,,0.00,0,Wunderground v.1.15,2013-10-15 06:44:00,
2013-10-15 02:50:00,75.8,68.8,29.91,North,5,0.0,0.0,79,0.00,,,0.00,0,Wunderground v.1.15,2013-10-15 06:50:00,
2013-10-15 02:56:00,75.3,68.7,29.91,North,5,0.0,0.0,80,0.00,,,0.00,0,Wunderground v.1.15,2013-10-15 06:56:00,
2013-10-15 03:02:00,75.0,68.8,29.91,North,360,0.0,0.0,81,0.00,,,0.00,0,Wunderground v.1.15,2013-10-15 07:02:00,
2013-10-15 03:08:00,74.7,68.8,29.91,North,5,0.0,0.0,82,0.00,,,0.00,0,Wunderground v.1.15,2013-10-15 07:08:00,
2013-10-15 03:14:00,74.4,68.5,29.91,North,5,0.0,0.0,82,0.00,,,0.00,0,Wunderground v.1.15,2013-10-15 07:14:00,
2013-10-15 03:20:00,74.2,68.7,29.91,North,5,0.0,0.0,83,0.00,,,0.00,0,Wunderground v.1.15,2013-10-15 07:20:00,
2013-10-15 03:26:00,73.9,68.8,29.91,North,360,0.0,0.0,84,0.00,,,0.00,0,Wunderground v.1.15,2013-10-15 07:26:00,
2013-10-15 03:32:00,73.7,68.6,29.90,North,5,0.0,0.0,84,0.00,,,0.00,0,Wunderground v.1.15,2013-10-15 07:32:00,
2013-10-15 03:38:00,73.5,68.7,29.91,North,360,0.0,0.0,85,0.00,,,0.00,0,Wunderground v.1.15,2013-10-15 07:38:00,
2013-10-15 03:44:00,73.3,68.5,29.91,North,360,0.0,0.0,85,0.00,,,0.00,0,Wunderground v.1.15,2013-10-15 07:44:00,
2013-10-15 03:50:00,73.2,68.8,29.90,North,360,0.0,0.0,86,0.00,,,0.00,0,Wunderground v.1.15,2013-10-15 07:50:00,
2013-10-15 03:56:00,73.1,68.7,29.90,North,360,0.0,0.0,86,0.00,,,0.00,0,Wunderground v.1.15,2013-10-15 07:56:00,
2013-10-15 04:02:00,72.9,68.5,29.91,North,5,0.0,0.0,86,0.00,,,0.00,0,Wunderground v.1.15,2013-10-15 08:02:00,
2013-10-15 04:08:00,72.8,68.7,29.90,North,360,0.0,0.0,87,0.00,,,0.00,0,Wunderground v.1.15,2013-10-15 08:08:00,
2013-10-15 04:14:00,72.7,68.6,29.90,North,360,0.0,0.0,87,0.00,,,0.00,0,Wunderground v.1.15,2013-10-15 08:14:00,
2013-10-15 04:20:00,72.7,68.6,29.90,North,360,0.0,0.0,87,0.00,,,0.00,0,Wunderground v.1.15,2013-10-15 08:20:00,
2013-10-15 04:26:00,72.6,68.8,29.90,North,5,0.0,0.0,88,0.00,,,0.00,0,Wunderground v.1.15,2013-10-15 08:26:00,
2013-10-15 04:32:00,72.5,68.7,29.90,North,5,0.0,0.0,88,0.00,,,0.00,0,Wunderground v.1.15,2013-10-15 08:32:00,
2013-10-15 04:38:00,72.6,68.8,29.90,North,360,0.0,0.0,88,0.00,,,0.00,0,Wunderground v.1.15,2013-10-15 08:38:00,
2013-10-15 04:44:00,72.6,68.8,29.90,North,360,0.0,0.0,88,0.00,,,0.00,0,Wunderground v.1.15,2013-10-15 08:44:00,
2013-10-15 04:50:00,72.5,68.7,29.90,North,5,0.0,0.0,88,0.00,,,0.00,0,Wunderground v.1.15,2013-10-15 08:50:00,
2013-10-15 04:56:00,72.5,68.7,29.90,North,5,0.0,0.0,88,0.00,,,0.00,0,Wunderground v.1.15,2013-10-15 08:56:00,
2013-10-15 05:02:00,72.4,68.6,29.90,North,5,0.0,0.0,88,0.00,,,0.00,0,Wunderground v.1.15,2013-10-15 09:02:00,
2013-10-15 05:08:00,72.3,68.5,29.90,North,5,0.0,0.0,88,0.00,,,0.00,0,Wunderground v.1.15,2013-10-15 09:08:00,
2013-10-15 05:14:00,72.1,68.3,29.90,North,5,0.0,0.0,88,0.00,,,0.00,0,Wunderground v.1.15,2013-10-15 09:14:00,
2013-10-15 05:20:00,72.0,68.2,29.89,North,5,0.0,0.0,88,0.00,,,0.00,0,Wunderground v.1.15,2013-10-15 09:20:00,
2013-10-15 05:26:00,71.9,68.5,29.90,North,360,0.0,0.0,89,0.00,,,0.00,0,Wunderground v.1.15,2013-10-15 09:26:00,
2013-10-15 05:32:00,71.7,68.3,29.90,North,5,0.0,0.0,89,0.00,,,0.00,0,Wunderground v.1.15,2013-10-15 09:32:00,
2013-10-15 05:38:00,71.6,68.2,29.90,North,5,0.0,0.0,89,0.00,,,0.00,0,Wunderground v.1.15,2013-10-15 09:38:00,
2013-10-15 05:44:00,71.5,68.1,29.90,North,360,0.0,0.0,89,0.00,,,0.00,0,Wunderground v.1.15,2013-10-15 09:44:00,
2013-10-15 05:50:00,71.4,68.3,29.90,North,5,0.0,0.0,90,0.00,,,0.00,0,Wunderground v.1.15,2013-10-15 09:50:00,
2013-10-15 05:56:00,71.4,68.3,29.90,North,5,0.0,0.0,90,0.00,,,0.00,0,Wunderground v.1.15,2013-10-15 09:56:00,
2013-10-15 06:02:00,71.5,68.4,29.90,North,5,0.0,0.0,90,0.00,,,0.00,0,Wunderground v.1.15,2013-10-15 10:02:00,
2013-10-15 06:08:00,71.6,68.5,29.90,North,5,0.0,0.0,90,0.00,,,0.00,0,Wunderground v.1.15,2013-10-15 10:08:00,
2013-10-15 06:14:00,71.6,68.5,29.91,North,5,0.0,0.0,90,0.00,,,0.00,0,Wunderground v.1.15,2013-10-15 10:14:00,
2013-10-15 06:20:00,71.6,68.5,29.91,North,5,0.0,0.0,90,0.00,,,0.00,0,Wunderground v.1.15,2013-10-15 10:20:00,
2013-10-15 06:26:00,71.5,68.4,29.91,North,360,0.0,0.0,90,0.00,,,0.00,0,Wunderground v.1.15,2013-10-15 10:26:00,
2013-10-15 06:32:00,71.4,68.6,29.91,North,5,0.0,0.0,91,0.00,,,0.00,0,Wunderground v.1.15,2013-10-15 10:32:00,
2013-10-15 06:38:00,71.4,68.6,29.91,North,360,0.0,0.0,91,0.00,,,0.00,0,Wunderground v.1.15,2013-10-15 10:38:00,
2013-10-15 06:44:00,71.4,68.6,29.91,North,5,0.0,0.0,91,0.00,,,0.00,0,Wunderground v.1.15,2013-10-15 10:44:00,
2013-10-15 06:50:00,71.3,68.5,29.91,North,5,0.0,0.0,91,0.00,,,0.00,0,Wunderground v.1.15,2013-10-15 10:50:00,
2013-10-15 06:56:00,71.3,68.5,29.92,North,360,0.0,0.0,91,0.00,,,0.00,0,Wunderground v.1.15,2013-10-15 10:56:00,
2013-10-15 07:02:00,71.2,68.4,29.92,North,5,0.0,0.0,91,0.00,,,0.00,0,Wunderground v.1.15,2013-10-15 11:02:00,
2013-10-15 07:08:00,71.3,68.9,29.92,North,5,0.0,0.0,92,0.00,,,0.00,0,Wunderground v.1.15,2013-10-15 11:08:00,
2013-10-15 07:14:00,71.5,69.1,29.92,North,360,0.0,0.0,92,0.00,,,0.00,0,Wunderground v.1.15,2013-10-15 11:14:00,
2013-10-15 07:20:00,71.6,69.2,29.92,North,5,0.0,0.0,92,0.00,,,0.00,0,Wunderground v.1.15,2013-10-15 11:20:00,
2013-10-15 07:26:00,71.7,69.3,29.92,North,5,0.0,0.0,92,0.00,,,0.00,7,Wunderground v.1.15,2013-10-15 11:26:00,
2013-10-15 07:32:00,71.9,69.4,29.92,North,9,0.0,0.0,92,0.00,,,0.00,14,Wunderground v.1.15,2013-10-15 11:32:00,
2013-10-15 07:38:00,72.0,69.5,29.92,North,9,0.0,0.0,92,0.00,,,0.00,28,Wunderground v.1.15,2013-10-15 11:38:00,
2013-10-15 07:44:00,72.2,69.7,29.93,North,9,0.0,0.0,92,0.00,,,0.00,49,Wunderground v.1.15,2013-10-15 11:44:00,
2013-10-15 07:50:00,72.5,70.0,29.93,North,360,0.0,0.0,92,0.00,,,0.00,23,Wunderground v.1.15,2013-10-15 11:50:00,
2013-10-15 07:56:00,72.6,69.8,29.93,North,360,0.0,0.0,91,0.00,,,0.00,25,Wunderground v.1.15,2013-10-15 11:56:00,
2013-10-15 08:02:00,72.8,70.0,29.93,North,360,0.0,0.0,91,0.00,,,0.00,32,Wunderground v.1.15,2013-10-15 12:02:00,
2013-10-15 08:08:00,72.9,69.8,29.93,NNW,333,0.0,0.0,90,0.00,,,0.00,90,Wunderground v.1.15,2013-10-15 12:08:00,
2013-10-15 08:14:00,73.1,70.0,29.93,WNW,303,0.0,0.0,90,0.00,,,0.00,28,Wunderground v.1.15,2013-10-15 12:14:00,
2013-10-15 08:20:00,73.4,70.3,29.93,WNW,303,0.0,0.0,90,0.00,,,0.00,130,Wunderground v.1.15,2013-10-15 12:20:00,
2013-10-15 08:26:00,73.8,70.4,29.94,NW,313,0.0,0.0,89,0.00,,,0.00,155,Wunderground v.1.15,2013-10-15 12:26:00,
2013-10-15 08:32:00,74.3,70.5,29.94,NW,320,1.0,1.0,88,0.00,,,0.00,183,Wunderground v.1.15,2013-10-15 12:32:00,
2013-10-15 08:38:00,74.9,70.8,29.94,North,351,0.0,1.0,87,0.00,,,0.00,209,Wunderground v.1.15,2013-10-15 12:38:00,
2013-10-15 08:44:00,75.4,70.9,29.94,NNW,331,1.0,3.0,86,0.00,,,0.00,229,Wunderground v.1.15,2013-10-15 12:44:00,
2013-10-15 08:50:00,75.9,71.1,29.94,NNW,331,2.0,2.0,85,0.00,,,0.00,251,Wunderground v.1.15,2013-10-15 12:50:00,
2013-10-15 08:56:00,76.4,71.2,29.94,North,355,1.0,2.0,84,0.00,,,0.00,274,Wunderground v.1.15,2013-10-15 12:56:00,
2013-10-15 09:02:00,77.1,71.5,29.94,NW,316,1.0,1.0,83,0.00,,,0.00,292,Wunderground v.1.15,2013-10-15 13:02:00,
2013-10-15 09:08:00,77.5,71.2,29.94,WNW,301,1.0,4.0,81,0.00,,,0.00,316,Wunderground v.1.15,2013-10-15 13:08:00,
2013-10-15 09:14:00,78.0,71.7,29.94,NW,314,1.0,1.0,81,0.00,,,0.00,336,Wunderground v.1.15,2013-10-15 13:14:00,
2013-10-15 09:20:00,78.6,71.9,29.94,NW,314,0.0,0.0,80,0.00,,,0.00,359,Wunderground v.1.15,2013-10-15 13:20:00,
2013-10-15 09:26:00,79.1,71.6,29.94,WNW,300,1.0,3.0,78,0.00,,,0.00,380,Wunderground v.1.15,2013-10-15 13:26:00,
2013-10-15 09:32:00,79.4,71.9,29.95,NNW,346,1.0,1.0,78,0.00,,,0.00,399,Wunderground v.1.15,2013-10-15 13:32:00,
2013-10-15 09:38:00,79.8,71.9,29.95,NW,307,1.0,5.0,77,0.00,,,0.00,417,Wunderground v.1.15,2013-10-15 13:38:00,
2013-10-15 09:44:00,80.1,72.2,29.95,NW,307,1.0,3.0,77,0.00,,,0.00,439,Wunderground v.1.15,2013-10-15 13:44:00,
2013-10-15 09:50:00,80.5,72.2,29.95,North,355,1.0,1.0,76,0.00,,,0.00,457,Wunderground v.1.15,2013-10-15 13:50:00,
2013-10-15 09:56:00,80.7,72.0,29.95,NNW,341,2.0,5.0,75,0.00,,,0.00,475,Wunderground v.1.15,2013-10-15 13:56:00,
2013-10-15 10:02:00,81.1,72.4,29.95,North,360,2.0,2.0,75,0.00,,,0.00,494,Wunderground v.1.15,2013-10-15 14:02:00,
2013-10-15 10:08:00,81.5,72.4,29.95,North,355,1.0,2.0,74,0.00,,,0.00,510,Wunderground v.1.15,2013-10-15 14:08:00,
2013-10-15 10:14:00,81.8,72.3,29.95,ESE,103,0.0,0.0,73,0.00,,,0.00,534,Wunderground v.1.15,2013-10-15 14:14:00,
2013-10-15 10:20:00,82.0,72.5,29.95,NNE,14,1.0,1.0,73,0.00,,,0.00,578,Wunderground v.1.15,2013-10-15 14:20:00,
2013-10-15 10:26:00,82.2,72.3,29.95,ESE,102,1.0,1.0,72,0.00,,,0.00,202,Wunderground v.1.15,2013-10-15 14:26:00,
2013-10-15 10:32:00,82.2,72.7,29.95,NE,52,0.0,1.0,73,0.00,,,0.00,251,Wunderground v.1.15,2013-10-15 14:32:00,
2013-10-15 10:38:00,82.4,72.5,29.95,North,9,1.0,6.0,72,0.00,,,0.00,751,Wunderground v.1.15,2013-10-15 14:38:00,
2013-10-15 10:44:00,82.9,72.5,29.94,ENE,61,1.0,12.0,71,0.00,,,0.00,749,Wunderground v.1.15,2013-10-15 14:44:00,
2013-10-15 10:50:00,83.2,72.4,29.95,NE,45,2.0,2.0,70,0.00,,,0.00,733,Wunderground v.1.15,2013-10-15 14:50:00,
2013-10-15 10:56:00,83.1,72.3,29.95,NE,52,3.0,7.0,70,0.00,,,0.00,728,Wunderground v.1.15,2013-10-15 14:56:00,
2013-10-15 11:02:00,83.2,72.4,29.95,NE,40,3.0,3.0,70,0.00,,,0.00,701,Wunderground v.1.15,2013-10-15 15:02:00,
2013-10-15 11:08:00,83.3,72.5,29.95,ENE,58,2.0,9.0,70,0.00,,,0.00,710,Wunderground v.1.15,2013-10-15 15:08:00,
2013-10-15 11:14:00,83.1,72.3,29.95,NE,45,3.0,3.0,70,0.00,,,0.00,710,Wunderground v.1.15,2013-10-15 15:14:00,
2013-10-15 11:20:00,83.1,72.3,29.95,NNE,32,3.0,4.0,70,0.00,,,0.00,714,Wunderground v.1.15,2013-10-15 15:20:00,
2013-10-15 11:26:00,83.1,72.3,29.95,East,82,4.0,8.0,70,0.00,,,0.00,722,Wunderground v.1.15,2013-10-15 15:26:00,
2013-10-15 11:32:00,83.1,72.7,29.95,NNE,17,4.0,7.0,71,0.00,,,0.00,737,Wunderground v.1.15,2013-10-15 15:32:00,
2013-10-15 11:38:00,83.4,73.0,29.95,North,5,3.0,7.0,71,0.00,,,0.00,747,Wunderground v.1.15,2013-10-15 15:38:00,
2013-10-15 11:44:00,84.1,73.7,29.95,NE,56,1.0,2.0,71,0.00,,,0.00,751,Wunderground v.1.15,2013-10-15 15:44:00,
2013-10-15 11:50:00,84.2,72.9,29.94,ENE,76,2.0,3.0,69,0.00,,,0.00,756,Wunderground v.1.15,2013-10-15 15:50:00,
2013-10-15 11:56:00,83.8,73.4,29.94,NNE,17,4.0,6.0,71,0.00,,,0.00,759,Wunderground v.1.15,2013-10-15 15:56:00,
2013-10-15 12:02:00,84.0,72.7,29.94,North,349,2.0,3.0,69,0.00,,,0.00,782,Wunderground v.1.15,2013-10-15 16:02:00,
2013-10-15 12:08:00,84.3,72.6,29.94,North,9,2.0,4.0,68,0.00,,,0.00,780,Wunderground v.1.15,2013-10-15 16:08:00,
2013-10-15 12:14:00,83.7,72.4,29.94,NE,52,5.0,9.0,69,0.00,,,0.00,780,Wunderground v.1.15,2013-10-15 16:14:00,
2013-10-15 12:20:00,83.5,73.1,29.94,North,5,5.0,5.0,71,0.00,,,0.00,795,Wunderground v.1.15,2013-10-15 16:20:00,
2013-10-15 12:26:00,84.0,72.7,29.93,NW,309,2.0,6.0,69,0.00,,,0.00,791,Wunderground v.1.15,2013-10-15 16:26:00,
2013-10-15 12:32:00,84.2,72.5,29.93,ENE,78,3.0,3.0,68,0.00,,,0.00,796,Wunderground v.1.15,2013-10-15 16:32:00,
2013-10-15 12:38:00,84.5,72.3,29.93,East,84,3.0,10.0,67,0.00,,,0.00,796,Wunderground v.1.15,2013-10-15 16:38:00,
2013-10-15 12:44:00,84.3,71.2,29.93,NNE,27,4.0,7.0,65,0.00,,,0.00,798,Wunderground v.1.15,2013-10-15 16:44:00,
2013-10-15 12:50:00,84.3,72.6,29.92,ENE,62,5.0,8.0,68,0.00,,,0.00,796,Wunderground v.1.15,2013-10-15 16:50:00,
2013-10-15 12:56:00,84.3,72.1,29.92,ENE,58,4.0,10.0,67,0.00,,,0.00,795,Wunderground v.1.15,2013-10-15 16:56:00,
2013-10-15 13:02:00,84.2,72.5,29.92,NNE,13,5.0,5.0,68,0.00,,,0.00,802,Wunderground v.1.15,2013-10-15 17:02:00,
2013-10-15 13:08:00,84.0,72.7,29.92,NNE,15,5.0,10.0,69,0.00,,,0.00,800,Wunderground v.1.15,2013-10-15 17:08:00,
2013-10-15 13:14:00,84.0,73.2,29.92,NE,44,4.0,9.0,70,0.00,,,0.00,803,Wunderground v.1.15,2013-10-15 17:14:00,
2013-10-15 13:20:00,84.0,72.7,29.91,NE,55,4.0,5.0,69,0.00,,,0.00,803,Wunderground v.1.15,2013-10-15 17:20:00,
2013-10-15 13:26:00,83.7,72.9,29.91,East,89,6.0,6.0,70,0.00,,,0.00,802,Wunderground v.1.15,2013-10-15 17:26:00,
2013-10-15 13:32:00,83.6,72.8,29.91,East,98,5.0,7.0,70,0.00,,,0.00,795,Wunderground v.1.15,2013-10-15 17:32:00,
2013-10-15 13:38:00,83.6,72.8,29.91,NE,54,5.0,8.0,70,0.00,,,0.00,795,Wunderground v.1.15,2013-10-15 17:38:00,
2013-10-15 13:44:00,83.4,72.2,29.91,NE,46,6.0,10.0,69,0.00,,,0.00,791,Wunderground v.1.15,2013-10-15 17:44:00,
2013-10-15 13:50:00,83.6,72.3,29.90,East,83,5.0,5.0,69,0.00,,,0.00,786,Wunderground v.1.15,2013-10-15 17:50:00,
2013-10-15 13:56:00,83.8,72.1,29.90,ENE,68,6.0,7.0,68,0.00,,,0.00,782,Wunderground v.1.15,2013-10-15 17:56:00,
2013-10-15 14:02:00,83.7,72.9,29.90,ESE,105,5.0,6.0,70,0.00,,,0.00,775,Wunderground v.1.15,2013-10-15 18:02:00,
2013-10-15 14:08:00,83.8,72.5,29.89,NNE,24,5.0,11.0,69,0.00,,,0.00,768,Wunderground v.1.15,2013-10-15 18:08:00,
2013-10-15 14:14:00,83.6,72.3,29.89,East,83,7.0,9.0,69,0.00,,,0.00,761,Wunderground v.1.15,2013-10-15 18:14:00,
2013-10-15 14:20:00,83.7,73.3,29.89,East,94,6.0,6.0,71,0.00,,,0.00,751,Wunderground v.1.15,2013-10-15 18:20:00,
2013-10-15 14:26:00,84.0,72.7,29.89,ENE,61,4.0,6.0,69,0.00,,,0.00,744,Wunderground v.1.15,2013-10-15 18:26:00,
2013-10-15 14:32:00,84.0,72.7,29.88,NNE,15,4.0,7.0,69,0.00,,,0.00,738,Wunderground v.1.15,2013-10-15 18:32:00,
2013-10-15 14:38:00,83.9,72.6,29.88,ENE,63,5.0,8.0,69,0.00,,,0.00,728,Wunderground v.1.15,2013-10-15 18:38:00,
2013-10-15 14:44:00,83.7,73.3,29.88,East,87,5.0,6.0,71,0.00,,,0.00,717,Wunderground v.1.15,2013-10-15 18:44:00,
2013-10-15 14:50:00,83.6,72.8,29.88,NNE,24,5.0,5.0,70,0.00,,,0.00,717,Wunderground v.1.15,2013-10-15 18:50:00,
2013-10-15 14:56:00,83.5,72.3,29.88,NNE,26,5.0,13.0,69,0.00,,,0.00,703,Wunderground v.1.15,2013-10-15 18:56:00,
2013-10-15 15:02:00,83.8,72.5,29.87,NE,51,4.0,6.0,69,0.00,,,0.00,606,Wunderground v.1.15,2013-10-15 19:02:00,
2013-10-15 15:08:00,83.7,72.9,29.87,NE,40,5.0,10.0,70,0.00,,,0.00,673,Wunderground v.1.15,2013-10-15 19:08:00,
2013-10-15 15:14:00,83.9,72.6,29.87,NE,40,4.0,5.0,69,0.00,,,0.00,654,Wunderground v.1.15,2013-10-15 19:14:00,
2013-10-15 15:20:00,83.9,72.2,29.87,NE,41,5.0,8.0,68,0.00,,,0.00,649,Wunderground v.1.15,2013-10-15 19:20:00,
2013-10-15 15:26:00,83.6,72.3,29.87,NE,45,5.0,8.0,69,0.00,,,0.00,629,Wunderground v.1.15,2013-10-15 19:26:00,
2013-10-15 15:32:00,83.7,72.0,29.87,North,360,4.0,5.0,68,0.00,,,0.00,608,Wunderground v.1.15,2013-10-15 19:32:00,
2013-10-15 15:38:00,83.7,72.4,29.88,NNE,14,4.0,5.0,69,0.00,,,0.00,599,Wunderground v.1.15,2013-10-15 19:38:00,
2013-10-15 15:44:00,83.9,73.1,29.87,East,82,3.0,5.0,70,0.00,,,0.00,589,Wunderground v.1.15,2013-10-15 19:44:00,
2013-10-15 15:50:00,83.8,73.0,29.87,NE,44,3.0,3.0,70,0.00,,,0.00,584,Wunderground v.1.15,2013-10-15 19:50:00,
2013-10-15 15:56:00,84.1,73.3,29.88,ENE,63,3.0,10.0,70,0.00,,,0.00,577,Wunderground v.1.15,2013-10-15 19:56:00,
2013-10-15 16:02:00,84.0,72.3,29.87,NNE,24,4.0,8.0,68,0.00,,,0.00,571,Wunderground v.1.15,2013-10-15 20:02:00,
2013-10-15 16:08:00,83.8,72.5,29.87,ENE,64,5.0,8.0,69,0.00,,,0.00,496,Wunderground v.1.15,2013-10-15 20:08:00,
2013-10-15 16:14:00,83.7,72.4,29.87,East,83,4.0,10.0,69,0.00,,,0.00,508,Wunderground v.1.15,2013-10-15 20:14:00,
2013-10-15 16:20:00,83.6,72.8,29.87,NE,55,4.0,4.0,70,0.00,,,0.00,475,Wunderground v.1.15,2013-10-15 20:20:00,
2013-10-15 16:26:00,83.4,72.6,29.87,North,360,4.0,5.0,70,0.00,,,0.00,422,Wunderground v.1.15,2013-10-15 20:26:00,
2013-10-15 16:32:00,83.3,72.5,29.87,ENE,63,4.0,8.0,70,0.00,,,0.00,399,Wunderground v.1.15,2013-10-15 20:32:00,
2013-10-15 16:38:00,83.2,71.5,29.87,NE,48,3.0,8.0,68,0.00,,,0.00,401,Wunderground v.1.15,2013-10-15 20:38:00,
2013-10-15 16:44:00,83.2,71.1,29.87,ENE,68,4.0,10.0,67,0.00,,,0.00,404,Wunderground v.1.15,2013-10-15 20:44:00,
2013-10-15 16:50:00,83.2,71.1,29.87,ENE,63,5.0,9.0,67,0.00,,,0.00,380,Wunderground v.1.15,2013-10-15 20:50:00,
2013-10-15 16:56:00,82.9,70.8,29.87,East,81,5.0,9.0,67,0.00,,,0.00,350,Wunderground v.1.15,2013-10-15 20:56:00,
2013-10-15 17:02:00,82.8,71.6,29.87,East,80,4.0,5.0,69,0.00,,,0.00,281,Wunderground v.1.15,2013-10-15 21:02:00,
2013-10-15 17:08:00,82.9,70.8,29.87,NNE,24,3.0,6.0,67,0.00,,,0.00,297,Wunderground v.1.15,2013-10-15 21:08:00,
2013-10-15 17:14:00,82.8,70.7,29.87,ENE,74,4.0,5.0,67,0.00,,,0.00,290,Wunderground v.1.15,2013-10-15 21:14:00,
2013-10-15 17:20:00,82.6,70.5,29.87,NE,56,4.0,4.0,67,0.00,,,0.00,258,Wunderground v.1.15,2013-10-15 21:20:00,
2013-10-15 17:26:00,82.5,70.9,29.87,ENE,70,4.0,6.0,68,0.00,,,0.00,248,Wunderground v.1.15,2013-10-15 21:26:00,
2013-10-15 17:34:00,82.5,71.3,29.87,NE,36,4.0,8.0,69,0.00,,,0.00,230,Wunderground v.1.15,2013-10-15 21:34:00,
2013-10-15 17:40:00,82.4,71.2,29.87,NE,36,4.0,4.0,69,0.00,,,0.00,207,Wunderground v.1.15,2013-10-15 21:40:00,
2013-10-15 17:46:00,82.1,70.5,29.88,ENE,57,5.0,10.0,68,0.00,,,0.00,176,Wunderground v.1.15,2013-10-15 21:46:00,
2013-10-15 17:52:00,82.0,70.8,29.88,NNE,30,5.0,5.0,69,0.00,,,0.00,144,Wunderground v.1.15,2013-10-15 21:52:00,
2013-10-15 17:58:00,81.8,70.2,29.88,NNW,336,4.0,11.0,68,0.00,,,0.00,120,Wunderground v.1.15,2013-10-15 21:58:00,
2013-10-15 18:04:00,81.8,70.6,29.88,NNE,33,4.0,5.0,69,0.00,,,0.00,97,Wunderground v.1.15,2013-10-15 22:04:00,
2013-10-15 18:10:00,81.6,70.9,29.88,NE,53,3.0,3.0,70,0.00,,,0.00,70,Wunderground v.1.15,2013-10-15 22:10:00,
2013-10-15 18:16:00,81.6,70.9,29.88,NE,45,3.0,8.0,70,0.00,,,0.00,47,Wunderground v.1.15,2013-10-15 22:16:00,
2013-10-15 18:22:00,81.4,70.7,29.88,NE,39,3.0,4.0,70,0.00,,,0.00,23,Wunderground v.1.15,2013-10-15 22:22:00,
2013-10-15 18:28:00,81.2,70.1,29.88,ENE,72,3.0,5.0,69,0.00,,,0.00,16,Wunderground v.1.15,2013-10-15 22:28:00,
2013-10-15 18:34:00,81.1,70.4,29.88,NE,51,3.0,3.0,70,0.00,,,0.00,14,Wunderground v.1.15,2013-10-15 22:34:00,
2013-10-15 18:40:00,81.1,70.8,29.88,ENE,76,1.0,1.0,71,0.00,,,0.00,11,Wunderground v.1.15,2013-10-15 22:40:00,
2013-10-15 18:46:00,80.9,70.6,29.88,NNE,29,2.0,3.0,71,0.00,,,0.00,7,Wunderground v.1.15,2013-10-15 22:46:00,
2013-10-15 18:52:00,80.8,70.5,29.88,ENE,61,1.0,1.0,71,0.00,,,0.00,5,Wunderground v.1.15,2013-10-15 22:52:00,
2013-10-15 18:58:00,80.7,70.4,29.88,ENE,57,0.0,12.0,71,0.00,,,0.00,0,Wunderground v.1.15,2013-10-15 22:58:00,
2013-10-15 19:04:00,80.6,70.3,29.88,NE,56,1.0,1.0,71,0.00,,,0.00,0,Wunderground v.1.15,2013-10-15 23:04:00,
2013-10-15 19:12:00,80.5,69.8,29.89,ENE,72,1.0,1.0,70,0.00,,,0.00,0,Wunderground v.1.15,2013-10-15 23:12:00,
2013-10-15 19:18:00,80.5,69.8,29.89,NE,37,1.0,4.0,70,0.00,,,0.00,0,Wunderground v.1.15,2013-10-15 23:18:00,
2013-10-15 19:24:00,80.5,69.8,29.89,ENE,65,1.0,1.0,70,0.00,,,0.00,0,Wunderground v.1.15,2013-10-15 23:24:00,
2013-10-15 19:30:00,80.4,69.7,29.89,ENE,60,0.0,0.0,70,0.00,,,0.00,0,Wunderground v.1.15,2013-10-15 23:30:00,
2013-10-15 19:36:00,80.3,69.6,29.89,ENE,76,0.0,0.0,70,0.00,,,0.00,0,Wunderground v.1.15,2013-10-15 23:36:00,
2013-10-15 19:42:00,80.3,69.6,29.89,ENE,61,0.0,0.0,70,0.00,,,0.00,0,Wunderground v.1.15,2013-10-15 23:42:00,
2013-10-15 19:48:00,80.3,69.6,29.90,ENE,69,0.0,0.0,70,0.00,,,0.00,0,Wunderground v.1.15,2013-10-15 23:48:00,
2013-10-15 19:54:00,80.2,69.5,29.90,ENE,69,0.0,0.0,70,0.00,,,0.00,0,Wunderground v.1.15,2013-10-15 23:54:00,
2013-10-15 20:00:00,80.1,68.6,29.90,NE,53,0.0,0.0,68,0.00,,,0.00,0,Wunderground v.1.15,2013-10-16 00:00:00,
2013-10-15 20:06:00,80.1,68.6,29.90,NE,51,0.0,0.0,68,0.00,,,0.00,0,Wunderground v.1.15,2013-10-16 00:06:00,
2013-10-15 20:12:00,80.1,69.0,29.90,NE,46,0.0,0.0,69,0.00,,,0.00,0,Wunderground v.1.15,2013-10-16 00:12:00,
2013-10-15 20:18:00,80.1,69.0,29.90,NNE,16,0.0,0.0,69,0.00,,,0.00,0,Wunderground v.1.15,2013-10-16 00:18:00,
2013-10-15 20:24:00,80.1,69.0,29.91,NNE,16,0.0,0.0,69,0.00,,,0.00,0,Wunderground v.1.15,2013-10-16 00:24:00,
2013-10-15 20:30:00,80.1,69.8,29.91,NNE,22,0.0,0.0,71,0.00,,,0.00,0,Wunderground v.1.15,2013-10-16 00:30:00,
2013-10-15 20:36:00,80.0,70.2,29.91,NE,36,0.0,0.0,72,0.00,,,0.00,0,Wunderground v.1.15,2013-10-16 00:36:00,
2013-10-15 20:42:00,79.9,70.1,29.91,NE,42,0.0,0.0,72,0.00,,,0.00,0,Wunderground v.1.15,2013-10-16 00:42:00,
2013-10-15 20:48:00,79.9,70.1,29.91,ENE,65,0.0,0.0,72,0.00,,,0.00,0,Wunderground v.1.15,2013-10-16 00:48:00,
2013-10-15 20:54:00,79.9,70.5,29.91,East,80,0.0,2.0,73,0.00,,,0.00,0,Wunderground v.1.15,2013-10-16 00:54:00,
2013-10-15 21:00:00,80.0,70.6,29.91,ENE,58,0.0,0.0,73,0.00,,,0.00,0,Wunderground v.1.15,2013-10-16 01:00:00,
2013-10-15 21:06:00,80.0,71.0,29.92,ENE,60,0.0,0.0,74,0.00,,,0.00,0,Wunderground v.1.15,2013-10-16 01:06:00,
2013-10-15 21:12:00,80.0,71.0,29.92,ENE,66,0.0,0.0,74,0.00,,,0.00,0,Wunderground v.1.15,2013-10-16 01:12:00,
2013-10-15 21:18:00,80.0,71.4,29.92,NNE,27,0.0,0.0,75,0.00,,,0.00,0,Wunderground v.1.15,2013-10-16 01:18:00,
2013-10-15 21:24:00,79.9,70.9,29.92,NE,55,0.0,0.0,74,0.00,,,0.00,0,Wunderground v.1.15,2013-10-16 01:24:00,
2013-10-15 21:30:00,80.0,71.4,29.92,ENE,67,0.0,0.0,75,0.00,,,0.00,0,Wunderground v.1.15,2013-10-16 01:30:00,
2013-10-15 21:36:00,80.0,71.4,29.93,ENE,69,0.0,1.0,75,0.00,,,0.00,0,Wunderground v.1.15,2013-10-16 01:36:00,
2013-10-15 21:42:00,80.0,71.4,29.93,NE,40,0.0,0.0,75,0.00,,,0.00,0,Wunderground v.1.15,2013-10-16 01:42:00,
2013-10-15 21:48:00,79.9,71.3,29.93,NNE,22,0.0,0.0,75,0.00,,,0.00,0,Wunderground v.1.15,2013-10-16 01:48:00,
2013-10-15 21:54:00,79.8,71.2,29.93,NE,46,0.0,0.0,75,0.00,,,0.00,0,Wunderground v.1.15,2013-10-16 01:54:00,
2013-10-15 22:00:00,79.8,71.2,29.93,ENE,78,0.0,0.0,75,0.00,,,0.00,0,Wunderground v.1.15,2013-10-16 02:00:00,
2013-10-15 22:06:00,79.8,71.2,29.94,ENE,59,0.0,0.0,75,0.00,,,0.00,0,Wunderground v.1.15,2013-10-16 02:06:00,
2013-10-15 22:12:00,79.7,71.1,29.94,NE,49,0.0,0.0,75,0.00,,,0.00,0,Wunderground v.1.15,2013-10-16 02:12:00,
2013-10-15 22:18:00,79.8,70.8,29.94,NE,38,1.0,4.0,74,0.00,,,0.00,0,Wunderground v.1.15,2013-10-16 02:18:00,
2013-10-15 22:24:00,79.8,70.8,29.94,ENE,63,1.0,1.0,74,0.00,,,0.00,0,Wunderground v.1.15,2013-10-16 02:24:00,
2013-10-15 22:30:00,79.8,70.8,29.94,NE,53,0.0,4.0,74,0.00,,,0.00,0,Wunderground v.1.15,2013-10-16 02:30:00,
2013-10-15 22:36:00,79.8,70.4,29.93,ENE,66,0.0,4.0,73,0.00,,,0.00,0,Wunderground v.1.15,2013-10-16 02:36:00,
2013-10-15 22:42:00,79.8,70.4,29.94,ENE,71,0.0,0.0,73,0.00,,,0.00,0,Wunderground v.1.15,2013-10-16 02:42:00,
2013-10-15 22:48:00,79.7,70.3,29.94,NNE,19,0.0,0.0,73,0.00,,,0.00,0,Wunderground v.1.15,2013-10-16 02:48:00,
2013-10-15 22:54:00,79.7,70.3,29.94,ENE,69,0.0,0.0,73,0.00,,,0.00,0,Wunderground v.1.15,2013-10-16 02:54:00,
2013-10-15 23:00:00,79.7,70.3,29.94,NE,52,0.0,0.0,73,0.00,,,0.00,0,Wunderground v.1.15,2013-10-16 03:00:00,
2013-10-15 23:06:00,79.7,70.3,29.94,NE,46,0.0,0.0,73,0.00,,,0.00,0,Wunderground v.1.15,2013-10-16 03:06:00,
2013-10-15 23:12:00,79.7,70.3,29.94,NE,53,0.0,0.0,73,0.00,,,0.00,0,Wunderground v.1.15,2013-10-16 03:12:00,
2013-10-15 23:18:00,79.6,69.8,29.94,ENE,76,0.0,4.0,72,0.00,,,0.00,0,Wunderground v.1.15,2013-10-16 03:18:00,
2013-10-15 23:24:00,79.6,69.8,29.94,East,88,0.0,0.0,72,0.00,,,0.00,0,Wunderground v.1.15,2013-10-16 03:24:00,
2013-10-15 23:30:00,79.5,69.7,29.94,East,93,0.0,0.0,72,0.00,,,0.00,0,Wunderground v.1.15,2013-10-16 03:30:00,
2013-10-15 23:36:00,79.4,70.0,29.93,East,86,0.0,0.0,73,0.00,,,0.00,0,Wunderground v.1.15,2013-10-16 03:36:00,
2013-10-15 23:42:00,79.3,69.5,29.93,ENE,75,0.0,0.0,72,0.00,,,0.00,0,Wunderground v.1.15,2013-10-16 03:42:00,
2013-10-15 23:48:00,79.4,69.6,29.93,ENE,60,1.0,1.0,72,0.00,,,0.00,0,Wunderground v.1.15,2013-10-16 03:48:00,
2013-10-15 23:54:00,79.4,70.0,29.93,ENE,69,0.0,0.0,73,0.00,,,0.00,0,Wunderground v.1.15,2013-10-16 03:54:00,